Home   Weather   Orange Walk Town   Past weeks
Flag for Belize

Past Weather in Orange Walk Town, Belize — Yesterday and Last 2 Weeks

Now
84 °F

Passing clouds.


Feels Like: 94 °F
Forecast: 93 / 79 °F
Wind: 14 mph from Southeast

Location: Chetumal - Q. Roo

Current Time: Oct 20, 2019 at 8:29:36 pm

Latest Report: Oct 20, 2019 at 7:45 pm


Visibility: 7 mi

Pressure: 29.85 "Hg

Humidity: 79%

Dew Point: 77 °F

Location of Orange Walk TownLocation

Past Weather in Orange Walk Town — Graph

°F

Orange Walk Town Temperature Yesterday

Maximum temperature yesterday: 91 °F (at 12:42 pm)
Minimum temperature yesterday: 79 °F (at 3:41 am)
Average temperature yesterday: 86 °F

High & Low Weather Summary for the Past Weeks

 TemperatureHumidityPressure
High91 °F (Oct 11, 10:47 am)100% (Oct 5, 6:22 pm)29.94 "Hg (Oct 5, 6:22 pm)
Low73 °F (Oct 13, 3:41 am)55% (Oct 13, 11:43 am)29.74 "Hg (Oct 6, 3:47 pm)
Average83 °F83%29.85 "Hg
* Reported Oct 5 6:22 pm — Oct 20 6:41 pm, Orange Walk Town. Weather by CustomWeather, © 2019

Note: Actual official high and low records may vary slightly from our data, if they occured in-between our weather recording intervals... More about our weather records

Advertising

Orange Walk Town Weather History for the Previous 24 Hours

Scroll right to see more
 ConditionsComfort  
Time TempWeatherWind HumidityBarometerVisibility
6:41 pm
Sun, Oct 20
84 °FPassing clouds.17 mph79%29.83 "Hg7 mi
5:41 pm86 °FPassing clouds.18 mph75%29.83 "Hg7 mi
4:44 pm86 °FPassing clouds.17 mph75%29.81 "Hg7 mi
3:40 pm88 °FPassing clouds.15 mph70%29.81 "Hg7 mi
2:41 pm90 °FScattered clouds.14 mph67%29.81 "Hg7 mi
1:48 pm90 °FScattered clouds.18 mph67%29.82 "Hg7 mi
12:47 pm90 °FScattered clouds.18 mph67%29.84 "Hg7 mi
11:45 am90 °FScattered clouds.14 mph71%29.86 "Hg7 mi
10:49 am90 °FScattered clouds.17 mph71%29.88 "Hg7 mi
9:40 am88 °FScattered clouds.14 mph75%29.89 "Hg7 mi
8:42 am88 °FScattered clouds.9 mph75%29.88 "Hg7 mi
7:40 am84 °FScattered clouds.9 mph84%29.87 "Hg7 mi
6:42 am84 °FPartly sunny.9 mph84%29.86 "Hg7 mi
5:44 am84 °FPassing clouds.7 mph84%29.84 "Hg7 mi
4:43 am84 °FPassing clouds.12 mph84%29.82 "Hg7 mi
3:45 am84 °FPassing clouds.9 mph84%29.81 "Hg7 mi
2:44 am82 °FPassing clouds.9 mph89%29.79 "Hg7 mi
1:52 am82 °FPassing clouds.9 mph89%29.79 "Hg7 mi
12:49 am84 °FPassing clouds.12 mph84%29.81 "Hg7 mi
11:46 pm
Sat, Oct 19
84 °FPassing clouds.9 mph84%29.82 "Hg7 mi
9:42 pm84 °FPassing clouds.9 mph84%29.83 "Hg7 mi
8:43 pm84 °FPassing clouds.12 mph84%29.83 "Hg7 mi
Weather by CustomWeather, © 2019

See weather overview